Home > Weather > Schwyz > Past weeks

Flag for Switzerland Past Weather in Schwyz, Schwyz, Switzerland — Yesterday and Last 2 Weeks

Now
78 °F

Warm.


Feels Like: 79 °F
Forecast: 62 / 77 °F
Wind: 3 mph from North

Location: Altdorf

Current Time: Aug 28, 2016 at 2:28:37 PM

Latest Report: Aug 28, 2016 at 1:00 PM


Visibility: N/A

Pressure: 30.03 "Hg (28.31 "Hg at 515m altitude)

Humidity: 58%

Dew Point: 62 °F

Location of SchwyzLocation

Past Weather in Schwyz — Graph

°F

Schwyz Temperature Yesterday

Maximum temperature yesterday: 85 °F (at 4:00 PM)
Minimum temperature yesterday: 62 °F (at 7:00 AM)
Average temperature yesterday: 72 °F

High & Low Weather Summary for the Past Weeks

 TemperatureHumidityPressure
High87 °F (Aug 26, 4:00 PM)99% (Aug 19, 12:00 AM)30.39 "Hg (Aug 19, 12:00 AM)
Low51 °F (Aug 22, 7:00 AM)45% (Aug 26, 4:00 PM)29.82 "Hg (Aug 18, 1:00 PM)
Average67 °F78%30.08 "Hg
* Reported Aug 13 1:00 PM — Aug 28 1:00 PM, Schwyz, Weather by CustomWeather, © 2016

Note: Actual official high and low records may vary slightly from our data, if they occured in-between our weather recording intervals... More about our weather records

Advertising

Schwyz Weather History for the Previous 24 Hours

Scroll right to see more
 ConditionsComfort  
Time TempWeatherWind HumidityBarometerVisibility
1:00 PM
Sun, Aug 28
78 °FWarm.3 mph58%30.03 "HgN/A
12:00 PM76 °FMild.2 mph59%30.05 "HgN/A
11:00 AM73 °FScattered clouds.3 mph70%30.08 "Hg19 mi
10:00 AM72 °FMild.1 mph77%30.08 "HgN/A
9:00 AM68 °FMild.2 mph85%30.09 "HgN/A
8:00 AM62 °FSunny.2 mph96%30.11 "Hg19 mi
7:00 AM61 °FCool.2 mph97%30.11 "HgN/A
5:00 AM62 °FClear.2 mph96%30.10 "Hg19 mi
4:00 AM63 °FMild.1 mph96%30.10 "HgN/A
3:00 AM64 °FMild.2 mph95%30.09 "HgN/A
2:00 AM65 °FThundershowers. Overcast.2 mph86%30.12 "Hg9 mi
1:00 AM75 °FMild.9 mph62%30.08 "HgN/A
12:00 AM69 °FMild.3 mph80%30.06 "HgN/A
11:00 PM
Sat, Aug 27
70 °FPassing clouds.2 mph77%30.05 "Hg17 mi
10:00 PM69 °FMild.3 mph80%30.05 "HgN/A
9:00 PM72 °FMild.1 mph73%30.03 "HgN/A
8:00 PM75 °FScattered clouds.1 mph65%30.01 "Hg17 mi
7:00 PM77 °FWarm.2 mph61%29.99 "HgN/A
6:00 PM78 °FWarm.1 mph62%29.99 "HgN/A
5:00 PM80 °FPassing clouds.2 mph56%29.99 "Hg19 mi
4:00 PM85 °FWarm.5 mph48%29.98 "HgN/A
3:00 PM83 °FWarm.5 mph51%30.00 "HgN/A
2:00 PM80 °FScattered clouds.5 mph54%30.02 "Hg19 mi
Weather by CustomWeather, © 2016

See weather overviewHow to use our weather pages